Time,TemperatureF,DewpointF,PressureIn,WindDirection,WindDirectionDegrees,WindSpeedMPH,WindSpeedGustMPH,Humidity,HourlyPrecipIn,Conditions,Clouds,dailyrainin,SoftwareType,DateUTC
2013-02-02 00:00:00,23.8,10.0,30.23,NW,310,4.0,4.0,55,0.00,,,0.00,Wunderground v.1.15,2013-02-02 05:00:00,
2013-02-02 00:05:00,23.6,9.8,30.24,NW,308,4.0,4.0,55,0.00,,,0.00,Wunderground v.1.15,2013-02-02 05:05:00,
2013-02-02 00:15:00,23.4,9.2,30.24,WNW,287,4.0,6.0,54,0.00,,,0.00,Wunderground v.1.15,2013-02-02 05:15:00,
2013-02-02 00:20:00,24.1,9.0,30.24,SW,221,5.0,7.0,52,0.00,,,0.00,Wunderground v.1.15,2013-02-02 05:20:00,
2013-02-02 00:25:00,24.0,8.9,30.24,SSW,206,6.0,6.0,52,0.00,,,0.00,Wunderground v.1.15,2013-02-02 05:25:00,
2013-02-02 00:30:00,24.0,8.9,30.24,SW,219,6.0,7.0,52,0.00,,,0.00,Wunderground v.1.15,2013-02-02 05:30:00,
2013-02-02 00:40:00,23.8,8.7,30.24,South,186,6.0,6.0,52,0.00,,,0.00,Wunderground v.1.15,2013-02-02 05:40:00,
2013-02-02 00:45:00,23.8,8.7,30.24,SSW,204,7.0,7.0,52,0.00,,,0.00,Wunderground v.1.15,2013-02-02 05:45:00,
2013-02-02 00:50:00,23.8,8.7,30.24,SSW,200,8.0,8.0,52,0.00,,,0.00,Wunderground v.1.15,2013-02-02 05:50:00,
2013-02-02 00:55:00,23.7,8.6,30.24,SSW,201,7.0,14.0,52,0.00,,,0.00,Wunderground v.1.15,2013-02-02 05:55:00,
2013-02-02 01:05:00,22.8,9.8,30.24,NW,307,6.0,6.0,57,0.00,,,0.00,Wunderground v.1.15,2013-02-02 06:05:00,
2013-02-02 01:10:00,22.8,10.2,30.24,WNW,288,5.0,5.0,58,0.00,,,0.00,Wunderground v.1.15,2013-02-02 06:10:00,
2013-02-02 01:20:00,22.7,9.3,30.25,WNW,291,5.0,5.0,56,0.00,,,0.00,Wunderground v.1.15,2013-02-02 06:20:00,
2013-02-02 01:25:00,22.6,10.0,30.25,WNW,302,5.0,5.0,58,0.00,,,0.00,Wunderground v.1.15,2013-02-02 06:25:00,
2013-02-02 01:30:00,22.5,9.5,30.25,West,276,5.0,5.0,57,0.00,,,0.00,Wunderground v.1.15,2013-02-02 06:30:00,
2013-02-02 01:40:00,22.3,9.4,30.26,NW,312,3.0,5.0,57,0.00,,,0.00,Wunderground v.1.15,2013-02-02 06:40:00,
2013-02-02 01:45:00,22.2,9.3,30.26,WNW,285,4.0,5.0,57,0.00,,,0.00,Wunderground v.1.15,2013-02-02 06:45:00,
2013-02-02 01:50:00,22.1,9.2,30.26,NW,325,3.0,3.0,57,0.00,,,0.00,Wunderground v.1.15,2013-02-02 06:50:00,
2013-02-02 02:00:00,22.2,10.0,30.26,WNW,288,5.0,5.0,59,0.00,,,0.00,Wunderground v.1.15,2013-02-02 07:00:00,
2013-02-02 02:05:00,22.1,9.6,30.26,West,281,4.0,5.0,58,0.00,,,0.00,Wunderground v.1.15,2013-02-02 07:05:00,
2013-02-02 02:15:00,22.0,9.5,30.26,NW,305,4.0,4.0,58,0.00,,,0.00,Wunderground v.1.15,2013-02-02 07:15:00,
2013-02-02 02:20:00,22.1,9.9,30.26,WNW,302,4.0,4.0,59,0.00,,,0.00,Wunderground v.1.15,2013-02-02 07:20:00,
2013-02-02 02:25:00,22.0,9.8,30.26,NW,318,5.0,9.0,59,0.00,,,0.00,Wunderground v.1.15,2013-02-02 07:25:00,
2013-02-02 02:35:00,21.8,9.7,30.27,WNW,288,5.0,6.0,59,0.00,,,0.00,Wunderground v.1.15,2013-02-02 07:35:00,
2013-02-02 02:40:00,21.7,10.3,30.27,West,281,5.0,5.0,61,0.00,,,0.00,Wunderground v.1.15,2013-02-02 07:40:00,
2013-02-02 02:50:00,21.6,9.8,30.27,WNW,302,5.0,5.0,60,0.00,,,0.00,Wunderground v.1.15,2013-02-02 07:50:00,
2013-02-02 03:00:00,21.5,9.7,30.28,NW,314,5.0,5.0,60,0.00,,,0.00,Wunderground v.1.15,2013-02-02 08:00:00,
2013-02-02 03:10:00,21.3,9.2,30.27,WNW,294,5.0,8.0,59,0.00,,,0.00,Wunderground v.1.15,2013-02-02 08:10:00,
2013-02-02 03:15:00,21.3,9.2,30.27,NW,305,5.0,8.0,59,0.00,,,0.00,Wunderground v.1.15,2013-02-02 08:15:00,
2013-02-02 03:25:00,21.1,9.0,30.28,NW,319,3.0,6.0,59,0.00,,,0.00,Wunderground v.1.15,2013-02-02 08:25:00,
2013-02-02 03:30:00,21.1,9.0,30.28,NW,319,4.0,4.0,59,0.00,,,0.00,Wunderground v.1.15,2013-02-02 08:30:00,
2013-02-02 03:40:00,21.0,8.9,30.27,NW,325,5.0,5.0,59,0.00,,,0.00,Wunderground v.1.15,2013-02-02 08:40:00,
2013-02-02 03:45:00,20.9,8.8,30.27,West,278,5.0,5.0,59,0.00,,,0.00,Wunderground v.1.15,2013-02-02 08:45:00,
2013-02-02 03:50:00,20.8,8.7,30.27,West,267,5.0,7.0,59,0.00,,,0.00,Wunderground v.1.15,2013-02-02 08:50:00,
2013-02-02 03:55:00,20.8,9.5,30.27,NW,305,4.0,7.0,61,0.00,,,0.00,Wunderground v.1.15,2013-02-02 08:55:00,
2013-02-02 04:05:00,20.6,8.9,30.28,NW,315,3.0,5.0,60,0.00,,,0.00,Wunderground v.1.15,2013-02-02 09:05:00,
2013-02-02 04:10:00,20.5,9.2,30.27,West,281,3.0,3.0,61,0.00,,,0.00,Wunderground v.1.15,2013-02-02 09:10:00,
2013-02-02 04:15:00,20.5,9.2,30.27,NW,321,4.0,7.0,61,0.00,,,0.00,Wunderground v.1.15,2013-02-02 09:15:00,
2013-02-02 04:25:00,20.4,9.1,30.27,NNW,328,6.0,9.0,61,0.00,,,0.00,Wunderground v.1.15,2013-02-02 09:25:00,
2013-02-02 04:30:00,20.3,8.2,30.26,NW,319,6.0,6.0,59,0.00,,,0.00,Wunderground v.1.15,2013-02-02 09:30:00,
2013-02-02 04:40:00,20.2,8.5,30.26,NW,319,5.0,5.0,60,0.00,,,0.00,Wunderground v.1.15,2013-02-02 09:40:00,
2013-02-02 04:45:00,20.1,9.2,30.27,NW,319,4.0,5.0,62,0.00,,,0.00,Wunderground v.1.15,2013-02-02 09:45:00,
2013-02-02 04:55:00,20.0,9.1,30.27,WNW,294,5.0,5.0,62,0.00,,,0.00,Wunderground v.1.15,2013-02-02 09:55:00,
2013-02-02 05:00:00,19.9,8.2,30.27,NW,314,5.0,5.0,60,0.00,,,0.00,Wunderground v.1.15,2013-02-02 10:00:00,
2013-02-02 05:05:00,19.8,9.2,30.27,NW,323,5.0,5.0,63,0.00,,,0.00,Wunderground v.1.15,2013-02-02 10:05:00,
2013-02-02 05:10:00,19.8,8.9,30.27,NW,305,4.0,4.0,62,0.00,,,0.00,Wunderground v.1.15,2013-02-02 10:10:00,
2013-02-02 05:15:00,19.7,8.8,30.27,NNW,333,4.0,6.0,62,0.00,,,0.00,Wunderground v.1.15,2013-02-02 10:15:00,
2013-02-02 05:20:00,19.6,9.0,30.27,NW,315,5.0,5.0,63,0.00,,,0.00,Wunderground v.1.15,2013-02-02 10:20:00,
2013-02-02 05:25:00,19.6,9.0,30.27,WNW,299,4.0,5.0,63,0.00,,,0.00,Wunderground v.1.15,2013-02-02 10:25:00,
2013-02-02 05:35:00,19.4,8.8,30.26,NW,314,4.0,5.0,63,0.00,,,0.00,Wunderground v.1.15,2013-02-02 10:35:00,
2013-02-02 05:40:00,19.4,8.8,30.27,WNW,301,4.0,4.0,63,0.00,,,0.00,Wunderground v.1.15,2013-02-02 10:40:00,
2013-02-02 05:45:00,19.3,9.1,30.27,NW,313,4.0,5.0,64,0.00,,,0.00,Wunderground v.1.15,2013-02-02 10:45:00,
2013-02-02 05:55:00,19.2,9.0,30.27,WNW,291,4.0,5.0,64,0.00,,,0.00,Wunderground v.1.15,2013-02-02 10:55:00,
2013-02-02 06:00:00,19.2,9.0,30.27,WNW,288,4.0,4.0,64,0.00,,,0.00,Wunderground v.1.15,2013-02-02 11:00:00,
2013-02-02 06:05:00,19.2,9.4,30.27,NNW,328,4.0,4.0,65,0.00,,,0.00,Wunderground v.1.15,2013-02-02 11:05:00,
2013-02-02 06:10:00,19.2,9.4,30.28,WNW,299,3.0,4.0,65,0.00,,,0.00,Wunderground v.1.15,2013-02-02 11:10:00,
2013-02-02 06:20:00,19.0,9.5,30.27,WNW,291,3.0,3.0,66,0.00,,,0.00,Wunderground v.1.15,2013-02-02 11:20:00,
2013-02-02 06:25:00,18.9,9.1,30.28,WNW,283,3.0,3.0,65,0.00,,,0.00,Wunderground v.1.15,2013-02-02 11:25:00,
2013-02-02 06:30:00,18.8,9.6,30.28,WNW,290,3.0,3.0,67,0.00,,,0.00,Wunderground v.1.15,2013-02-02 11:30:00,
2013-02-02 06:40:00,18.8,9.6,30.28,WNW,299,4.0,4.0,67,0.00,,,0.00,Wunderground v.1.15,2013-02-02 11:40:00,
2013-02-02 06:50:00,18.7,9.6,30.29,WNW,294,3.0,3.0,67,0.00,,,0.00,Wunderground v.1.15,2013-02-02 11:50:00,
2013-02-02 06:55:00,18.6,9.5,30.29,WSW,243,3.0,3.0,67,0.00,,,0.00,Wunderground v.1.15,2013-02-02 11:55:00,
2013-02-02 07:00:00,18.5,9.4,30.29,WSW,240,4.0,4.0,67,0.00,,,0.00,Wunderground v.1.15,2013-02-02 12:00:00,
2013-02-02 07:05:00,18.6,9.8,30.29,WNW,293,4.0,5.0,68,0.00,,,0.00,Wunderground v.1.15,2013-02-02 12:05:00,
2013-02-02 07:10:00,18.6,9.8,30.29,NW,312,4.0,6.0,68,0.00,,,0.00,Wunderground v.1.15,2013-02-02 12:10:00,
2013-02-02 07:15:00,18.7,9.6,30.29,WNW,302,4.0,8.0,67,0.00,,,0.00,Wunderground v.1.15,2013-02-02 12:15:00,
2013-02-02 07:25:00,18.9,9.4,30.29,NW,322,5.0,5.0,66,0.00,,,0.00,Wunderground v.1.15,2013-02-02 12:25:00,
2013-02-02 07:35:00,19.0,9.8,30.30,NW,304,3.0,4.0,67,0.00,,,0.00,Wunderground v.1.15,2013-02-02 12:35:00,
2013-02-02 07:45:00,19.2,9.7,30.30,West,281,4.0,4.0,66,0.00,,,0.00,Wunderground v.1.15,2013-02-02 12:45:00,
2013-02-02 07:50:00,19.3,10.1,30.30,WNW,297,4.0,4.0,67,0.00,,,0.00,Wunderground v.1.15,2013-02-02 12:50:00,
2013-02-02 07:55:00,19.4,9.5,30.30,WNW,288,5.0,5.0,65,0.00,,,0.00,Wunderground v.1.15,2013-02-02 12:55:00,
2013-02-02 08:00:00,19.4,9.2,30.30,NW,322,5.0,7.0,64,0.00,,,0.00,Wunderground v.1.15,2013-02-02 13:00:00,
2013-02-02 08:05:00,19.6,10.1,30.30,NW,318,5.0,7.0,66,0.00,,,0.00,Wunderground v.1.15,2013-02-02 13:05:00,
2013-02-02 08:15:00,19.7,9.5,30.30,WSW,238,5.0,7.0,64,0.00,,,0.00,Wunderground v.1.15,2013-02-02 13:15:00,
2013-02-02 08:20:00,19.9,10.0,30.30,West,278,5.0,7.0,65,0.00,,,0.00,Wunderground v.1.15,2013-02-02 13:20:00,
2013-02-02 08:25:00,19.9,9.3,30.29,WNW,302,6.0,7.0,63,0.00,,,0.00,Wunderground v.1.15,2013-02-02 13:25:00,
2013-02-02 08:30:00,20.0,8.7,30.30,NNW,340,6.0,7.0,61,0.00,,,0.00,Wunderground v.1.15,2013-02-02 13:30:00,
2013-02-02 08:35:00,20.1,9.2,30.29,NW,309,5.0,7.0,62,0.00,,,0.00,Wunderground v.1.15,2013-02-02 13:35:00,
2013-02-02 08:45:00,20.4,8.7,30.29,NW,308,6.0,8.0,60,0.00,,,0.00,Wunderground v.1.15,2013-02-02 13:45:00,
2013-02-02 08:50:00,20.5,8.8,30.29,NW,307,7.0,7.0,60,0.00,,,0.00,Wunderground v.1.15,2013-02-02 13:50:00,
2013-02-02 08:55:00,20.6,8.5,30.29,NW,325,6.0,7.0,59,0.00,,,0.00,Wunderground v.1.15,2013-02-02 13:55:00,
2013-02-02 09:05:00,21.1,9.4,30.29,WNW,300,5.0,6.0,60,0.00,,,0.00,Wunderground v.1.15,2013-02-02 14:05:00,
2013-02-02 09:10:00,21.2,9.5,30.29,WNW,299,5.0,7.0,60,0.00,,,0.00,Wunderground v.1.15,2013-02-02 14:10:00,
2013-02-02 09:15:00,21.2,9.1,30.29,NW,322,6.0,7.0,59,0.00,,,0.00,Wunderground v.1.15,2013-02-02 14:15:00,
2013-02-02 09:25:00,21.8,9.3,30.28,WNW,291,4.0,6.0,58,0.00,,,0.00,Wunderground v.1.15,2013-02-02 14:25:00,
2013-02-02 09:30:00,22.0,9.8,30.28,NNW,328,3.0,3.0,59,0.00,,,0.00,Wunderground v.1.15,2013-02-02 14:30:00,
2013-02-02 09:35:00,22.2,9.7,30.28,WNW,294,4.0,5.0,58,0.00,,,0.00,Wunderground v.1.15,2013-02-02 14:35:00,
2013-02-02 09:45:00,22.2,8.9,30.27,West,274,4.0,4.0,56,0.00,,,0.00,Wunderground v.1.15,2013-02-02 14:45:00,
2013-02-02 09:50:00,22.5,9.1,30.27,WNW,291,3.0,3.0,56,0.00,,,0.00,Wunderground v.1.15,2013-02-02 14:50:00,
2013-02-02 10:00:00,22.7,8.9,30.27,SW,222,4.0,4.0,55,0.00,,,0.00,Wunderground v.1.15,2013-02-02 15:00:00,
2013-02-02 10:05:00,23.4,8.3,30.27,NW,308,4.0,4.0,52,0.00,,,0.00,Wunderground v.1.15,2013-02-02 15:05:00,
2013-02-02 10:15:00,23.6,8.9,30.27,WSW,257,3.0,3.0,53,0.00,,,0.00,Wunderground v.1.15,2013-02-02 15:15:00,
2013-02-02 10:20:00,23.9,8.8,30.26,West,274,2.0,2.0,52,0.00,,,0.00,Wunderground v.1.15,2013-02-02 15:20:00,
2013-02-02 10:30:00,24.0,8.0,30.26,NW,316,2.0,2.0,50,0.00,,,0.00,Wunderground v.1.15,2013-02-02 15:30:00,
2013-02-02 10:35:00,24.2,8.2,30.26,West,275,2.0,2.0,50,0.00,,,0.00,Wunderground v.1.15,2013-02-02 15:35:00,
2013-02-02 10:45:00,24.7,9.1,30.26,SW,228,2.0,3.0,51,0.00,,,0.00,Wunderground v.1.15,2013-02-02 15:45:00,
2013-02-02 10:50:00,25.5,9.9,30.26,South,176,2.0,4.0,51,0.00,,,0.00,Wunderground v.1.15,2013-02-02 15:50:00,
2013-02-02 10:55:00,25.9,9.8,30.25,WNW,293,2.0,4.0,50,0.00,,,0.00,Wunderground v.1.15,2013-02-02 15:55:00,
2013-02-02 11:00:00,26.2,9.6,30.25,SW,232,2.0,2.0,49,0.00,,,0.00,Wunderground v.1.15,2013-02-02 16:00:00,
2013-02-02 11:05:00,26.2,8.7,30.25,WNW,291,3.0,3.0,47,0.00,,,0.00,Wunderground v.1.15,2013-02-02 16:05:00,
2013-02-02 11:10:00,26.2,8.7,30.25,SSE,165,2.0,3.0,47,0.00,,,0.00,Wunderground v.1.15,2013-02-02 16:10:00,
2013-02-02 11:15:00,26.3,8.8,30.24,SSW,200,3.0,4.0,47,0.00,,,0.00,Wunderground v.1.15,2013-02-02 16:15:00,
2013-02-02 11:20:00,26.6,9.1,30.24,SW,215,4.0,4.0,47,0.00,,,0.00,Wunderground v.1.15,2013-02-02 16:20:00,
2013-02-02 11:30:00,27.4,9.3,30.23,WNW,302,3.0,5.0,46,0.00,,,0.00,Wunderground v.1.15,2013-02-02 16:30:00,
2013-02-02 11:35:00,27.6,9.5,30.23,SW,221,3.0,7.0,46,0.00,,,0.00,Wunderground v.1.15,2013-02-02 16:35:00,
2013-02-02 11:40:00,27.7,8.6,30.23,West,273,4.0,4.0,44,0.00,,,0.00,Wunderground v.1.15,2013-02-02 16:40:00,
2013-02-02 12:25:00,29.7,9.4,30.20,West,267,3.0,4.0,42,0.00,,,0.00,Wunderground v.1.15,2013-02-02 17:25:00,
2013-02-02 12:35:00,29.8,8.4,30.19,WNW,284,4.0,4.0,40,0.00,,,0.00,Wunderground v.1.15,2013-02-02 17:35:00,
2013-02-02 12:40:00,29.8,8.4,30.19,SW,232,4.0,4.0,40,0.00,,,0.00,Wunderground v.1.15,2013-02-02 17:40:00,
2013-02-02 12:45:00,29.6,8.2,30.18,WNW,294,4.0,6.0,40,0.00,,,0.00,Wunderground v.1.15,2013-02-02 17:45:00,
2013-02-02 12:50:00,29.7,8.3,30.18,WNW,296,3.0,6.0,40,0.00,,,0.00,Wunderground v.1.15,2013-02-02 17:50:00,
2013-02-02 12:55:00,30.0,8.0,30.18,South,191,4.0,4.0,39,0.00,,,0.00,Wunderground v.1.15,2013-02-02 17:55:00,
2013-02-02 13:05:00,30.4,7.8,30.17,West,267,3.0,4.0,38,0.00,,,0.00,Wunderground v.1.15,2013-02-02 18:05:00,
2013-02-02 13:15:00,30.6,6.8,30.16,West,273,4.0,4.0,36,0.00,,,0.00,Wunderground v.1.15,2013-02-02 18:15:00,
2013-02-02 13:25:00,31.4,8.1,30.16,WSW,257,3.0,4.0,37,0.00,,,0.00,Wunderground v.1.15,2013-02-02 18:25:00,
2013-02-02 13:30:00,31.5,7.6,30.15,WNW,288,2.0,3.0,36,0.00,,,0.00,Wunderground v.1.15,2013-02-02 18:30:00,
2013-02-02 13:40:00,31.1,7.8,30.15,NNW,330,3.0,3.0,37,0.00,,,0.00,Wunderground v.1.15,2013-02-02 18:40:00,
2013-02-02 13:50:00,31.0,7.7,30.14,WSW,252,4.0,12.0,37,0.00,,,0.00,Wunderground v.1.15,2013-02-02 18:50:00,
2013-02-02 13:55:00,30.8,8.1,30.14,West,271,4.0,12.0,38,0.00,,,0.00,Wunderground v.1.15,2013-02-02 18:55:00,
2013-02-02 14:00:00,31.1,8.4,30.14,SW,235,3.0,3.0,38,0.00,,,0.00,Wunderground v.1.15,2013-02-02 19:00:00,
2013-02-02 14:10:00,30.9,8.8,30.13,SW,219,3.0,4.0,39,0.00,,,0.00,Wunderground v.1.15,2013-02-02 19:10:00,
2013-02-02 14:15:00,31.0,7.7,30.14,SW,236,4.0,4.0,37,0.00,,,0.00,Wunderground v.1.15,2013-02-02 19:15:00,
2013-02-02 14:20:00,31.4,8.1,30.14,WSW,252,3.0,8.0,37,0.00,,,0.00,Wunderground v.1.15,2013-02-02 19:20:00,
2013-02-02 14:30:00,31.4,8.7,30.13,WNW,285,4.0,4.0,38,0.00,,,0.00,Wunderground v.1.15,2013-02-02 19:30:00,
2013-02-02 14:40:00,31.6,7.0,30.13,West,278,3.0,4.0,35,0.00,,,0.00,Wunderground v.1.15,2013-02-02 19:40:00,
2013-02-02 14:45:00,31.5,8.8,30.13,SSW,211,3.0,4.0,38,0.00,,,0.00,Wunderground v.1.15,2013-02-02 19:45:00,
2013-02-02 14:50:00,31.6,8.9,30.13,WSW,257,3.0,3.0,38,0.00,,,0.00,Wunderground v.1.15,2013-02-02 19:50:00,
2013-02-02 15:00:00,31.4,8.7,30.12,SW,222,3.0,3.0,38,0.00,,,0.00,Wunderground v.1.15,2013-02-02 20:00:00,
2013-02-02 15:10:00,30.9,7.6,30.12,WSW,246,4.0,4.0,37,0.00,,,0.00,Wunderground v.1.15,2013-02-02 20:10:00,
2013-02-02 15:15:00,30.5,8.4,30.12,WSW,243,4.0,4.0,39,0.00,,,0.00,Wunderground v.1.15,2013-02-02 20:15:00,
2013-02-02 15:25:00,30.6,8.0,30.12,WSW,238,3.0,3.0,38,0.00,,,0.00,Wunderground v.1.15,2013-02-02 20:25:00,
2013-02-02 15:30:00,30.4,8.4,30.12,West,280,4.0,4.0,39,0.00,,,0.00,Wunderground v.1.15,2013-02-02 20:30:00,
2013-02-02 15:35:00,30.5,7.9,30.12,SW,231,3.0,4.0,38,0.00,,,0.00,Wunderground v.1.15,2013-02-02 20:35:00,
2013-02-02 15:45:00,30.9,9.4,30.11,SW,219,3.0,3.0,40,0.00,,,0.00,Wunderground v.1.15,2013-02-02 20:45:00,
2013-02-02 15:50:00,31.0,10.6,30.11,West,277,2.0,2.0,42,0.00,,,0.00,Wunderground v.1.15,2013-02-02 20:50:00,
2013-02-02 15:55:00,30.7,10.3,30.11,West,280,3.0,3.0,42,0.00,,,0.00,Wunderground v.1.15,2013-02-02 20:55:00,
2013-02-02 16:00:00,30.6,10.2,30.11,WNW,284,3.0,4.0,42,0.00,,,0.00,Wunderground v.1.15,2013-02-02 21:00:00,
2013-02-02 16:05:00,30.3,9.4,30.11,West,281,3.0,4.0,41,0.00,,,0.00,Wunderground v.1.15,2013-02-02 21:05:00,
2013-02-02 16:15:00,29.9,9.6,30.10,East,83,3.0,6.0,42,0.00,,,0.00,Wunderground v.1.15,2013-02-02 21:15:00,
2013-02-02 16:20:00,29.8,9.5,30.10,WSW,241,3.0,3.0,42,0.00,,,0.00,Wunderground v.1.15,2013-02-02 21:20:00,
2013-02-02 16:25:00,29.7,9.9,30.10,SW,218,3.0,3.0,43,0.00,,,0.00,Wunderground v.1.15,2013-02-02 21:25:00,
2013-02-02 16:30:00,29.8,10.5,30.10,WSW,252,2.0,2.0,44,0.00,,,0.00,Wunderground v.1.15,2013-02-02 21:30:00,
2013-02-02 16:35:00,29.8,10.5,30.10,West,271,2.0,2.0,44,0.00,,,0.00,Wunderground v.1.15,2013-02-02 21:35:00,
2013-02-02 16:40:00,29.7,10.4,30.10,SW,226,2.0,6.0,44,0.00,,,0.00,Wunderground v.1.15,2013-02-02 21:40:00,
2013-02-02 16:45:00,29.6,10.3,30.10,SSW,198,2.0,6.0,44,0.00,,,0.00,Wunderground v.1.15,2013-02-02 21:45:00,
2013-02-02 16:55:00,29.2,10.5,30.09,NW,319,2.0,3.0,45,0.00,,,0.00,Wunderground v.1.15,2013-02-02 21:55:00,
2013-02-02 17:00:00,29.1,10.9,30.09,NW,311,2.0,2.0,46,0.00,,,0.00,Wunderground v.1.15,2013-02-02 22:00:00,
2013-02-02 17:10:00,28.9,10.2,30.09,West,274,3.0,4.0,45,0.00,,,0.00,Wunderground v.1.15,2013-02-02 22:10:00,
2013-02-02 17:20:00,28.8,10.6,30.09,SSW,212,2.0,2.0,46,0.00,,,0.00,Wunderground v.1.15,2013-02-02 22:20:00,
2013-02-02 17:30:00,28.8,10.1,30.09,WSW,252,3.0,5.0,45,0.00,,,0.00,Wunderground v.1.15,2013-02-02 22:30:00,
2013-02-02 17:40:00,28.7,11.0,30.09,SSW,201,2.0,2.0,47,0.00,,,0.00,Wunderground v.1.15,2013-02-02 22:40:00,
2013-02-02 17:45:00,28.6,10.9,30.09,SSW,197,2.0,2.0,47,0.00,,,0.00,Wunderground v.1.15,2013-02-02 22:45:00,
2013-02-02 17:50:00,28.6,10.4,30.09,SW,233,2.0,2.0,46,0.00,,,0.00,Wunderground v.1.15,2013-02-02 22:50:00,
2013-02-02 17:55:00,28.6,10.9,30.09,WNW,294,2.0,2.0,47,0.00,,,0.00,Wunderground v.1.15,2013-02-02 22:55:00,
2013-02-02 18:00:00,28.7,11.0,30.09,West,277,2.0,2.0,47,0.00,,,0.00,Wunderground v.1.15,2013-02-02 23:00:00,
2013-02-02 18:05:00,28.7,11.0,30.09,WSW,257,2.0,5.0,47,0.00,,,0.00,Wunderground v.1.15,2013-02-02 23:05:00,
2013-02-02 18:15:00,28.6,11.8,30.09,WSW,242,3.0,6.0,49,0.00,,,0.00,Wunderground v.1.15,2013-02-02 23:15:00,
2013-02-02 18:25:00,28.6,11.8,30.09,West,263,3.0,3.0,49,0.00,,,0.00,Wunderground v.1.15,2013-02-02 23:25:00,
2013-02-02 18:35:00,28.5,11.3,30.09,South,177,3.0,3.0,48,0.00,,,0.00,Wunderground v.1.15,2013-02-02 23:35:00,
2013-02-02 18:40:00,28.4,11.2,30.09,SW,232,2.0,3.0,48,0.00,,,0.00,Wunderground v.1.15,2013-02-02 23:40:00,
2013-02-02 18:45:00,28.4,11.2,30.09,WSW,243,3.0,3.0,48,0.00,,,0.00,Wunderground v.1.15,2013-02-02 23:45:00,
2013-02-02 18:50:00,28.4,10.7,30.09,West,259,3.0,5.0,47,0.00,,,0.00,Wunderground v.1.15,2013-02-02 23:50:00,
2013-02-02 18:55:00,28.3,10.6,30.09,NW,326,3.0,5.0,47,0.00,,,0.00,Wunderground v.1.15,2013-02-02 23:55:00,
2013-02-02 19:05:00,28.1,10.9,30.09,WSW,240,2.0,3.0,48,0.00,,,0.00,Wunderground v.1.15,2013-02-03 00:05:00,
2013-02-02 19:15:00,28.1,11.4,30.08,SSW,195,2.0,3.0,49,0.00,,,0.00,Wunderground v.1.15,2013-02-03 00:15:00,
2013-02-02 19:20:00,28.1,10.9,30.08,NW,321,2.0,2.0,48,0.00,,,0.00,Wunderground v.1.15,2013-02-03 00:20:00,
2013-02-02 19:25:00,28.1,11.4,30.08,West,280,2.0,2.0,49,0.00,,,0.00,Wunderground v.1.15,2013-02-03 00:25:00,
2013-02-02 19:35:00,28.1,11.8,30.08,SSW,194,2.0,3.0,50,0.00,,,0.00,Wunderground v.1.15,2013-02-03 00:35:00,
2013-02-02 19:45:00,28.0,13.1,30.08,WSW,238,2.0,7.0,53,0.00,,,0.00,Wunderground v.1.15,2013-02-03 00:45:00,
2013-02-02 19:50:00,27.7,14.0,30.08,West,278,4.0,4.0,56,0.00,,,0.00,Wunderground v.1.15,2013-02-03 00:50:00,
2013-02-02 19:55:00,27.6,13.9,30.08,West,276,4.0,4.0,56,0.00,,,0.00,Wunderground v.1.15,2013-02-03 00:55:00,
2013-02-02 20:00:00,27.5,15.0,30.08,WNW,299,4.0,4.0,59,0.00,,,0.00,Wunderground v.1.15,2013-02-03 01:00:00,
2013-02-02 20:10:00,27.3,16.4,30.07,WSW,240,4.0,7.0,63,0.00,,,0.00,Wunderground v.1.15,2013-02-03 01:10:00,
2013-02-02 20:20:00,27.1,16.5,30.08,SW,235,3.0,5.0,64,0.00,,,0.00,Wunderground v.1.15,2013-02-03 01:20:00,
2013-02-02 20:30:00,26.9,17.7,30.08,SSW,201,3.0,3.0,68,0.00,,,0.00,Wunderground v.1.15,2013-02-03 01:30:00,
2013-02-02 20:35:00,26.7,17.6,30.08,SW,218,2.0,3.0,68,0.00,,,0.00,Wunderground v.1.15,2013-02-03 01:35:00,
2013-02-02 20:45:00,26.7,18.6,30.08,West,269,2.0,2.0,71,0.00,,,0.00,Wunderground v.1.15,2013-02-03 01:45:00,
2013-02-02 20:55:00,26.6,19.1,30.08,North,349,3.0,3.0,73,0.00,,,0.00,Wunderground v.1.15,2013-02-03 01:55:00,
2013-02-02 21:05:00,26.5,19.0,30.08,WSW,240,2.0,2.0,73,0.00,,,0.00,Wunderground v.1.15,2013-02-03 02:05:00,
2013-02-02 21:10:00,26.3,19.1,30.08,WNW,288,2.0,2.0,74,0.00,,,0.00,Wunderground v.1.15,2013-02-03 02:10:00,
2013-02-02 21:15:00,26.3,19.5,30.08,NNE,20,1.0,3.0,75,0.00,,,0.00,Wunderground v.1.15,2013-02-03 02:15:00,
2013-02-02 21:20:00,26.2,19.7,30.08,NW,321,1.0,4.0,76,0.00,,,0.00,Wunderground v.1.15,2013-02-03 02:20:00,
2013-02-02 21:30:00,26.0,19.8,30.08,West,281,2.0,2.0,77,0.00,,,0.00,Wunderground v.1.15,2013-02-03 02:30:00,
2013-02-02 21:40:00,25.8,20.2,30.08,WNW,291,2.0,2.0,79,0.00,,,0.00,Wunderground v.1.15,2013-02-03 02:40:00,
2013-02-02 21:45:00,25.7,20.4,30.08,WNW,292,1.0,4.0,80,0.00,,,0.00,Wunderground v.1.15,2013-02-03 02:45:00,
2013-02-02 21:50:00,25.5,20.2,30.08,WSW,238,2.0,2.0,80,0.00,,,0.00,Wunderground v.1.15,2013-02-03 02:50:00,
2013-02-02 22:00:00,25.2,20.8,30.08,NW,311,3.0,4.0,83,0.00,,,0.00,Wunderground v.1.15,2013-02-03 03:00:00,
2013-02-02 22:10:00,24.9,21.0,30.08,WNW,285,1.0,5.0,85,0.00,,,0.00,Wunderground v.1.15,2013-02-03 03:10:00,
2013-02-02 22:15:00,24.9,21.0,30.08,WSW,257,1.0,5.0,85,0.00,,,0.00,Wunderground v.1.15,2013-02-03 03:15:00,
2013-02-02 22:25:00,24.8,21.2,30.07,WNW,294,1.0,2.0,86,0.00,,,0.00,Wunderground v.1.15,2013-02-03 03:25:00,
2013-02-02 22:30:00,24.7,21.4,30.07,SW,235,1.0,1.0,87,0.00,,,0.00,Wunderground v.1.15,2013-02-03 03:30:00,
2013-02-02 22:35:00,24.7,21.4,30.07,WNW,288,1.0,3.0,87,0.00,,,0.00,Wunderground v.1.15,2013-02-03 03:35:00,
2013-02-02 22:40:00,24.7,21.7,30.07,SSE,153,1.0,1.0,88,0.00,,,0.00,Wunderground v.1.15,2013-02-03 03:40:00,
2013-02-02 22:45:00,24.6,21.6,30.07,West,259,1.0,1.0,88,0.00,,,0.00,Wunderground v.1.15,2013-02-03 03:45:00,
2013-02-02 22:50:00,24.6,21.6,30.06,SW,221,1.0,1.0,88,0.00,,,0.00,Wunderground v.1.15,2013-02-03 03:50:00,
2013-02-02 22:55:00,24.5,21.5,30.06,SW,222,1.0,1.0,88,0.00,,,0.00,Wunderground v.1.15,2013-02-03 03:55:00,
2013-02-02 23:05:00,24.4,21.6,30.06,WSW,251,0.0,2.0,89,0.00,,,0.00,Wunderground v.1.15,2013-02-03 04:05:00,
2013-02-02 23:10:00,24.5,21.7,30.05,WSW,248,1.0,1.0,89,0.00,,,0.00,Wunderground v.1.15,2013-02-03 04:10:00,
2013-02-02 23:15:00,24.5,21.7,30.05,WSW,249,0.0,1.0,89,0.00,,,0.00,Wunderground v.1.15,2013-02-03 04:15:00,
2013-02-02 23:25:00,24.5,21.7,30.05,West,267,0.0,0.0,89,0.00,,,0.00,Wunderground v.1.15,2013-02-03 04:25:00,
2013-02-02 23:30:00,24.5,22.0,30.05,West,269,0.0,0.0,90,0.00,,,0.00,Wunderground v.1.15,2013-02-03 04:30:00,
2013-02-02 23:40:00,24.5,22.0,30.04,WSW,238,0.0,0.0,90,0.00,,,0.00,Wunderground v.1.15,2013-02-03 04:40:00,
2013-02-02 23:45:00,24.5,22.0,30.04,WSW,238,0.0,0.0,90,0.00,,,0.00,Wunderground v.1.15,2013-02-03 04:45:00,
2013-02-02 23:55:00,24.5,22.0,30.04,WSW,238,0.0,0.0,90,0.00,,,0.00,Wunderground v.1.15,2013-02-03 04:55:00,